| time (UTC) | temp F | wind direction | speed MPH | gust MPH | rain 1hr in | rain 24hr in | rain mn in | humidity % | barometer mb |
| 20260503020503 | 67 | 242 | 0.0 | 0.0 | 0.00 | 0.00 | 0.00 | 55 | 1019.1 |
| 20260503015003 | 68 | 243 | 0.0 | 0.0 | 0.00 | 0.00 | 0.00 | 52 | 1019.1 |
| 20260503014506 | 69 | 242 | 0.0 | 0.0 | 0.00 | 0.00 | 0.00 | 51 | 1019.1 |
| 20260503013505 | 70 | 243 | 0.0 | 0.0 | 0.00 | 0.00 | 0.00 | 51 | 1019.0 |
| 20260503013007 | 70 | 243 | 0.0 | 0.0 | 0.00 | 0.00 | 0.00 | 50 | 1018.9 |
| 20260503012503 | 71 | 242 | 0.0 | 0.0 | 0.00 | 0.00 | 0.00 | 47 | 1018.9 |
| 20260503012003 | 72 | 242 | 0.0 | 0.0 | 0.00 | 0.00 | 0.00 | 46 | 1018.9 |
| 20260503011506 | 72 | 243 | 0.0 | 0.0 | 0.00 | 0.00 | 0.00 | 46 | 1018.9 |
| 20260503011004 | 72 | 242 | 0.0 | 0.0 | 0.00 | 0.00 | 0.00 | 46 | 1018.8 |
| 20260503010504 | 72 | 243 | 0.0 | 0.0 | 0.00 | 0.00 | 0.00 | 45 | 1018.8 |
| 20260503010007 | 73 | 243 | 0.0 | 0.0 | 0.00 | 0.00 | 0.00 | 45 | 1018.7 |
| 20260503005503 | 73 | 243 | 0.0 | 0.0 | 0.00 | 0.00 | 0.00 | 45 | 1018.7 |
| 20260503005002 | 73 | 242 | 0.0 | 0.0 | 0.00 | 0.00 | 0.00 | 44 | 1018.7 |
| 20260503004505 | 73 | 242 | 0.0 | 3.0 | 0.00 | 0.00 | 0.00 | 44 | 1018.6 |
| 20260503004002 | 74 | 243 | 0.0 | 3.0 | 0.00 | 0.00 | 0.00 | 44 | 1018.6 |
| 20260503003502 | 74 | 243 | 0.0 | 3.0 | 0.00 | 0.00 | 0.00 | 43 | 1018.6 |
| 20260503003007 | 74 | 242 | 0.0 | 4.0 | 0.00 | 0.00 | 0.00 | 42 | 1018.6 |
| 20260503002002 | 75 | 243 | 0.0 | 2.0 | 0.00 | 0.00 | 0.00 | 43 | 1018.6 |
| 20260503001505 | 76 | 244 | 0.0 | 2.0 | 0.00 | 0.00 | 0.00 | 41 | 1018.6 |
| 20260503001002 | 76 | 242 | 0.0 | 4.0 | 0.00 | 0.00 | 0.00 | 41 | 1018.5 |
| 20260503000503 | 76 | 243 | 0.0 | 7.0 | 0.00 | 0.00 | 0.00 | 41 | 1018.6 |
| 20260503000010 | 77 | 244 | 0.0 | 7.0 | 0.00 | 0.00 | 0.00 | 40 | 1018.6 |
| 20260502235502 | 77 | 261 | 1.0 | 7.0 | 0.00 | 0.00 | 0.00 | 39 | 1018.7 |
| 20260502235002 | 77 | 28 | 0.0 | 2.0 | 0.00 | 0.00 | 0.00 | 40 | 1018.6 |
| 20260502234505 | 77 | 131 | 0.0 | 2.0 | 0.00 | 0.00 | 0.00 | 38 | 1018.7 |
| 20260502233502 | 78 | 106 | 0.0 | 0.0 | 0.00 | 0.00 | 0.00 | 41 | 1018.7 |
| 20260502233006 | 77 | 107 | 0.0 | 1.0 | 0.00 | 0.00 | 0.00 | 39 | 1018.7 |
| 20260502232503 | 76 | 107 | 0.0 | 1.0 | 0.00 | 0.00 | 0.00 | 39 | 1018.7 |
| 20260502232003 | 75 | 106 | 0.0 | 0.0 | 0.00 | 0.00 | 0.00 | 42 | 1018.9 |
| 20260502231003 | 74 | 107 | 0.0 | 0.0 | 0.00 | 0.00 | 0.00 | 44 | 1018.9 |
| 20260502230502 | 75 | 107 | 0.0 | 0.0 | 0.00 | 0.00 | 0.00 | 39 | 1019.0 |
| 20260502230008 | 76 | 107 | 0.0 | 0.0 | 0.00 | 0.00 | 0.00 | 44 | 1019.0 |
| 20260502225502 | 77 | 106 | 0.0 | 0.0 | 0.00 | 0.00 | 0.00 | 41 | 1019.0 |
| 20260502225002 | 77 | 107 | 0.0 | 0.0 | 0.00 | 0.00 | 0.00 | 40 | 1019.0 |
| 20260502224505 | 77 | 107 | 0.0 | 1.0 | 0.00 | 0.00 | 0.00 | 37 | 1019.0 |
| 20260502224002 | 78 | 106 | 0.0 | 2.0 | 0.00 | 0.00 | 0.00 | 38 | 1019.1 |
| 20260502223503 | 77 | 98 | 0.0 | 2.0 | 0.00 | 0.00 | 0.00 | 35 | 1019.1 |
| 20260502223005 | 77 | 98 | 0.0 | 4.0 | 0.00 | 0.00 | 0.00 | 38 | 1019.2 |
| 20260502222502 | 77 | 110 | 0.0 | 4.0 | 0.00 | 0.00 | 0.00 | 39 | 1019.2 |
| 20260502222002 | 75 | 83 | 0.0 | 2.0 | 0.00 | 0.00 | 0.00 | 39 | 1019.2 |
| 20260502221505 | 75 | 92 | 0.0 | 2.0 | 0.00 | 0.00 | 0.00 | 41 | 1019.3 |
| 20260502221003 | 75 | 179 | 0.0 | 0.0 | 0.00 | 0.00 | 0.00 | 38 | 1019.4 |
| 20260502220007 | 75 | 179 | 0.0 | 2.0 | 0.00 | 0.00 | 0.00 | 38 | 1019.4 |
| 20260502215502 | 76 | 179 | 0.0 | 5.0 | 0.00 | 0.00 | 0.00 | 36 | 1019.4 |
| 20260502215002 | 77 | 178 | 1.0 | 5.0 | 0.00 | 0.00 | 0.00 | 37 | 1019.5 |
| 20260502213502 | 75 | 135 | 0.0 | 2.0 | 0.00 | 0.00 | 0.00 | 39 | 1019.6 |
| 20260502213006 | 75 | 135 | 0.0 | 2.0 | 0.00 | 0.00 | 0.00 | 39 | 1019.7 |
| 20260502212502 | 76 | 123 | 0.0 | 1.0 | 0.00 | 0.00 | 0.00 | 39 | 1019.7 |
| 20260502212002 | 76 | 123 | 0.0 | 1.0 | 0.00 | 0.00 | 0.00 | 38 | 1019.7 |
| 20260502211506 | 76 | 123 | 0.0 | 2.0 | 0.00 | 0.00 | 0.00 | 35 | 1019.8 |
| 20260502211002 | 76 | 146 | 0.0 | 2.0 | 0.00 | 0.00 | 0.00 | 39 | 1019.8 |
| 20260502210008 | 76 | 76 | 0.0 | 0.0 | 0.00 | 0.00 | 0.00 | 38 | 1020.0 |
| 20260502205502 | 76 | 76 | 0.0 | 1.0 | 0.00 | 0.00 | 0.00 | 40 | 1020.1 |
| 20260502205002 | 76 | 76 | 0.0 | 4.0 | 0.00 | 0.00 | 0.00 | 40 | 1020.2 |
| 20260502204002 | 77 | 38 | 0.0 | 5.0 | 0.00 | 0.00 | 0.00 | 38 | 1020.4 |
| 20260502203502 | 78 | 211 | 0.0 | 5.0 | 0.00 | 0.00 | 0.00 | 35 | 1020.3 |
| 20260502203005 | 78 | 210 | 1.0 | 5.0 | 0.00 | 0.00 | 0.00 | 34 | 1020.4 |
| 20260502202502 | 76 | 102 | 0.0 | 4.0 | 0.00 | 0.00 | 0.00 | 36 | 1020.4 |
| 20260502202001 | 76 | 63 | 0.0 | 9.0 | 0.00 | 0.00 | 0.00 | 35 | 1020.5 |
| 20260502201505 | 76 | 80 | 2.0 | 9.0 | 0.00 | 0.00 | 0.00 | 35 | 1020.5 |
| 20260502201002 | 76 | 80 | 0.0 | 5.0 | 0.00 | 0.00 | 0.00 | 35 | 1020.6 |
| 20260502200501 | 76 | 28 | 0.0 | 6.0 | 0.00 | 0.00 | 0.00 | 37 | 1020.7 |
| 20260502195501 | 76 | 190 | 0.0 | 7.0 | 0.00 | 0.00 | 0.00 | 35 | 1020.7 |
| 20260502195002 | 76 | 190 | 1.0 | 9.0 | 0.00 | 0.00 | 0.00 | 36 | 1020.8 |
| 20260502194504 | 77 | 261 | 1.0 | 9.0 | 0.00 | 0.00 | 0.00 | 37 | 1020.8 |
| 20260502194001 | 78 | 96 | 2.0 | 7.0 | 0.00 | 0.00 | 0.00 | 35 | 1020.8 |
| 20260502193500 | 78 | 360 | 0.0 | 5.0 | 0.00 | 0.00 | 0.00 | 36 | 1020.9 |
| 20260502193004 | 77 | 360 | 2.0 | 5.0 | 0.00 | 0.00 | 0.00 | 34 | 1021.0 |
| 20260502192501 | 77 | 89 | 0.0 | 2.0 | 0.00 | 0.00 | 0.00 | 34 | 1020.9 |
| 20260502191505 | 76 | 103 | 2.0 | 7.0 | 0.00 | 0.00 | 0.00 | 34 | 1021.1 |
| 20260502190501 | 78 | 284 | 0.0 | 0.0 | 0.00 | 0.00 | 0.00 | 34 | 1021.2 |
| 20260502190006 | 76 | 284 | 0.0 | 2.0 | 0.00 | 0.00 | 0.00 | 34 | 1021.3 |
| 20260502185501 | 76 | 284 | 0.0 | 4.0 | 0.00 | 0.00 | 0.00 | 34 | 1021.4 |
| 20260502185000 | 76 | 331 | 1.0 | 4.0 | 0.00 | 0.00 | 0.00 | 42 | 1021.5 |
| 20260502184001 | 76 | 56 | 1.0 | 5.0 | 0.00 | 0.00 | 0.00 | 35 | 1021.5 |
| 20260502183004 | 75 | 86 | 0.0 | 1.0 | 0.00 | 0.00 | 0.00 | 36 | 1021.7 |
| 20260502182500 | 75 | 61 | 0.0 | 7.0 | 0.00 | 0.00 | 0.00 | 36 | 1021.8 |
| 20260502182001 | 75 | 44 | 3.0 | 7.0 | 0.00 | 0.00 | 0.00 | 35 | 1021.9 |
| 20260502181504 | 74 | 211 | 0.0 | 6.0 | 0.00 | 0.00 | 0.00 | 37 | 1021.9 |
| 20260502181000 | 75 | 101 | 0.0 | 6.0 | 0.00 | 0.00 | 0.00 | 36 | 1022.0 |
| 20260502180501 | 74 | 87 | 1.0 | 8.0 | 0.00 | 0.00 | 0.00 | 36 | 1022.1 |
| 20260502170501 | 74 | 88 | 0.0 | 0.0 | 0.00 | 0.00 | 0.00 | 37 | 1022.7 |
| 20260502163502 | 72 | 104 | 0.0 | 0.0 | 0.00 | 0.00 | 0.00 | 40 | 1022.8 |
| 20260502163012 | 72 | 84 | 0.0 | 0.0 | 0.00 | 0.00 | 0.00 | 41 | 1022.8 |
| 20260502162500 | 71 | 80 | 0.0 | 0.0 | 0.00 | 0.00 | 0.00 | 41 | 1022.8 |
| 20260502161505 | 70 | 96 | 0.0 | 0.0 | 0.00 | 0.00 | 0.00 | 42 | 1022.8 |
| 20260502161001 | 71 | 246 | 0.0 | 0.0 | 0.00 | 0.00 | 0.00 | 42 | 1022.8 |
| 20260502160502 | 70 | 248 | 0.0 | 0.0 | 0.00 | 0.00 | 0.00 | 44 | 1022.8 |
| 20260502152000 | 69 | 244 | 0.0 | 0.0 | 0.00 | 0.00 | 0.00 | 42 | 1022.5 |
| 20260502151518 | 69 | 244 | 0.0 | 0.0 | 0.00 | 0.00 | 0.00 | 46 | 1022.6 |
| 20260502151003 | 68 | 244 | 0.0 | 0.0 | 0.00 | 0.00 | 0.00 | 41 | 1022.5 |
| 20260502150500 | 68 | 244 | 0.0 | 0.0 | 0.00 | 0.00 | 0.00 | 44 | 1022.6 |
| 20260502130501 | 54 | 209 | 0.0 | 0.0 | 0.00 | 0.00 | 0.00 | 82 | 1022.0 |
| 20260502123500 | 51 | 209 | 0.0 | 0.0 | 0.00 | 0.00 | 0.00 | 89 | 1021.6 |
| 20260502123003 | 50 | 209 | 0.0 | 0.0 | 0.00 | 0.00 | 0.00 | 90 | 1021.4 |
| 20260502122459 | 50 | 209 | 0.0 | 0.0 | 0.00 | 0.00 | 0.00 | 90 | 1021.3 |
| 20260502122001 | 49 | 209 | 0.0 | 0.0 | 0.00 | 0.00 | 0.00 | 91 | 1021.2 |
| 20260502121000 | 49 | 209 | 0.0 | 0.0 | 0.00 | 0.00 | 0.00 | 91 | 1021.0 |
| 20260502120459 | 48 | 209 | 0.0 | 0.0 | 0.00 | 0.00 | 0.00 | 91 | 1020.9 |
| 20260502115500 | 48 | 209 | 0.0 | 0.0 | 0.00 | 0.00 | 0.00 | 91 | 1020.9 |
| 20260502113959 | 48 | 209 | 0.0 | 0.0 | 0.00 | 0.00 | 0.00 | 90 | 1020.5 |
| 20260502113459 | 48 | 209 | 0.0 | 0.0 | 0.00 | 0.00 | 0.00 | 90 | 1020.5 |
| 20260502113002 | 49 | 209 | 0.0 | 0.0 | 0.00 | 0.00 | 0.00 | 90 | 1020.3 |
| 20260502112459 | 49 | 209 | 0.0 | 0.0 | 0.00 | 0.00 | 0.00 | 90 | 1020.5 |
| 20260502111959 | 49 | 209 | 0.0 | 0.0 | 0.00 | 0.00 | 0.00 | 90 | 1020.4 |
| 20260502110959 | 49 | 209 | 0.0 | 0.0 | 0.00 | 0.00 | 0.00 | 90 | 1020.2 |
| 20260502110459 | 49 | 209 | 0.0 | 0.0 | 0.00 | 0.00 | 0.00 | 90 | 1020.1 |
| 20260502110005 | 49 | 209 | 0.0 | 0.0 | 0.00 | 0.00 | 0.00 | 90 | 1020.2 |
| 20260502105458 | 49 | 209 | 0.0 | 0.0 | 0.00 | 0.00 | 0.00 | 90 | 1020.1 |
| 20260502104958 | 49 | 209 | 0.0 | 0.0 | 0.00 | 0.00 | 0.00 | 90 | 1020.0 |
| 20260502103959 | 50 | 209 | 0.0 | 0.0 | 0.00 | 0.00 | 0.00 | 90 | 1020.0 |
| 20260502103458 | 49 | 209 | 0.0 | 1.0 | 0.00 | 0.00 | 0.00 | 90 | 1020.0 |
| 20260502103002 | 49 | 209 | 0.0 | 1.0 | 0.00 | 0.00 | 0.00 | 90 | 1019.9 |
| 20260502102459 | 49 | 209 | 0.0 | 0.0 | 0.00 | 0.00 | 0.00 | 89 | 1019.8 |
| 20260502101959 | 49 | 209 | 0.0 | 0.0 | 0.00 | 0.00 | 0.00 | 89 | 1019.6 |
| 20260502101504 | 49 | 209 | 0.0 | 0.0 | 0.00 | 0.00 | 0.00 | 88 | 1019.6 |
| 20260502100959 | 50 | 209 | 0.0 | 0.0 | 0.00 | 0.00 | 0.00 | 88 | 1019.6 |
| 20260502091503 | 52 | 209 | 0.0 | 0.0 | 0.00 | 0.00 | 0.00 | 85 | 1019.5 |
| 20260502090959 | 52 | 209 | 0.0 | 0.0 | 0.00 | 0.00 | 0.00 | 85 | 1019.5 |
| 20260502090458 | 52 | 209 | 0.0 | 0.0 | 0.00 | 0.00 | 0.00 | 85 | 1019.5 |
| 20260502071502 | 54 | 209 | 0.0 | 0.0 | 0.00 | 0.00 | 0.00 | 83 | 1019.7 |
| 20260502070958 | 54 | 209 | 0.0 | 0.0 | 0.00 | 0.00 | 0.00 | 83 | 1019.7 |
| 20260502070458 | 54 | 209 | 0.0 | 0.0 | 0.00 | 0.00 | 0.00 | 82 | 1019.7 |
| 20260502070004 | 54 | 209 | 0.0 | 0.0 | 0.00 | 0.00 | 0.00 | 82 | 1019.7 |
| 20260502065458 | 55 | 209 | 0.0 | 0.0 | 0.00 | 0.01 | 0.00 | 81 | 1019.7 |
| 20260502063958 | 55 | 209 | 0.0 | 0.0 | 0.00 | 0.01 | 0.00 | 81 | 1019.7 |
| 20260502063458 | 55 | 209 | 0.0 | 0.0 | 0.00 | 0.01 | 0.00 | 81 | 1019.7 |
| 20260502063001 | 55 | 209 | 0.0 | 0.0 | 0.00 | 0.01 | 0.00 | 81 | 1019.7 |
| 20260502062457 | 56 | 209 | 0.0 | 0.0 | 0.00 | 0.01 | 0.00 | 80 | 1019.7 |
| 20260502061957 | 56 | 209 | 0.0 | 0.0 | 0.00 | 0.01 | 0.00 | 80 | 1019.8 |
| 20260502061500 | 56 | 209 | 0.0 | 0.0 | 0.00 | 0.01 | 0.00 | 79 | 1019.8 |
| 20260502060957 | 56 | 209 | 0.0 | 0.0 | 0.00 | 0.01 | 0.00 | 79 | 1019.8 |
| 20260502060457 | 57 | 209 | 0.0 | 0.0 | 0.00 | 0.01 | 0.00 | 78 | 1019.8 |
| 20260502060008 | 57 | 209 | 0.0 | 0.0 | 0.00 | 0.01 | 0.00 | 78 | 1019.8 |
| 20260502055503 | 57 | 209 | 0.0 | 0.0 | 0.00 | 0.01 | 0.00 | 78 | 1019.7 |
| 20260502055003 | 57 | 209 | 0.0 | 0.0 | 0.00 | 0.01 | 0.00 | 78 | 1019.7 |
| 20260502054507 | 57 | 209 | 0.0 | 0.0 | 0.00 | 0.01 | 0.00 | 77 | 1019.7 |
| 20260502054004 | 57 | 209 | 0.0 | 0.0 | 0.00 | 0.01 | 0.00 | 77 | 1019.6 |
| 20260502053503 | 58 | 209 | 0.0 | 0.0 | 0.00 | 0.01 | 0.00 | 76 | 1019.6 |
| 20260502053007 | 58 | 209 | 0.0 | 0.0 | 0.00 | 0.01 | 0.00 | 76 | 1019.6 |
| 20260502052503 | 58 | 209 | 0.0 | 0.0 | 0.00 | 0.01 | 0.00 | 76 | 1019.5 |
| 20260502052003 | 58 | 209 | 0.0 | 1.0 | 0.00 | 0.01 | 0.00 | 76 | 1019.5 |
| 20260502051004 | 58 | 208 | 1.0 | 3.0 | 0.00 | 0.01 | 0.00 | 75 | 1019.4 |
| 20260502050503 | 58 | 201 | 0.0 | 3.0 | 0.00 | 0.01 | 0.00 | 76 | 1019.5 |
| 20260502050013 | 58 | 201 | 1.0 | 3.0 | 0.00 | 0.01 | 0.00 | 77 | 1019.5 |
| 20260502045503 | 58 | 109 | 0.0 | 1.0 | 0.00 | 0.01 | 0.01 | 79 | 1019.6 |
| 20260502044507 | 57 | 78 | 0.0 | 0.0 | 0.00 | 0.01 | 0.01 | 81 | 1019.6 |
| 20260502044003 | 57 | 78 | 0.0 | 0.0 | 0.00 | 0.01 | 0.01 | 80 | 1019.5 |
| 20260502043503 | 57 | 78 | 0.0 | 0.0 | 0.00 | 0.01 | 0.01 | 82 | 1019.6 |
| 20260502043007 | 58 | 78 | 0.0 | 0.0 | 0.00 | 0.01 | 0.01 | 81 | 1019.6 |
| 20260502042504 | 58 | 78 | 0.0 | 0.0 | 0.00 | 0.01 | 0.01 | 80 | 1019.6 |
| 20260502042004 | 59 | 78 | 0.0 | 0.0 | 0.00 | 0.01 | 0.01 | 78 | 1019.5 |
| 20260502040504 | 59 | 78 | 0.0 | 0.0 | 0.00 | 0.01 | 0.01 | 77 | 1019.3 |
| 20260502035503 | 59 | 78 | 0.0 | 0.0 | 0.00 | 0.01 | 0.01 | 77 | 1019.4 |
| 20260502035003 | 59 | 78 | 0.0 | 0.0 | 0.00 | 0.01 | 0.01 | 77 | 1019.4 |
| 20260502034004 | 59 | 78 | 0.0 | 0.0 | 0.00 | 0.01 | 0.01 | 79 | 1019.3 |
| 20260502033503 | 59 | 78 | 0.0 | 0.0 | 0.00 | 0.01 | 0.01 | 79 | 1019.4 |
| 20260502033007 | 60 | 78 | 0.0 | 0.0 | 0.00 | 0.01 | 0.01 | 78 | 1019.3 |
| 20260502032504 | 60 | 78 | 0.0 | 0.0 | 0.00 | 0.01 | 0.01 | 77 | 1019.3 |
| 20260502032004 | 59 | 78 | 0.0 | 0.0 | 0.00 | 0.01 | 0.01 | 78 | 1019.2 |
| 20260502031506 | 59 | 67 | 0.0 | 0.0 | 0.00 | 0.01 | 0.01 | 80 | 1019.2 |
| 20260502031003 | 59 | 67 | 0.0 | 0.0 | 0.00 | 0.01 | 0.01 | 80 | 1019.1 |
| 20260502030504 | 59 | 67 | 0.0 | 0.0 | 0.00 | 0.01 | 0.01 | 79 | 1019.1 |
| 20260502030009 | 59 | 67 | 0.0 | 0.0 | 0.00 | 0.01 | 0.01 | 79 | 1019.0 |
| 20260502025503 | 60 | 67 | 0.0 | 0.0 | 0.00 | 0.01 | 0.01 | 79 | 1019.0 |
| 20260502025003 | 60 | 67 | 0.0 | 0.0 | 0.00 | 0.01 | 0.01 | 77 | 1019.0 |
| 20260502024507 | 60 | 67 | 0.0 | 0.0 | 0.00 | 0.01 | 0.01 | 78 | 1018.9 |
| 20260502024004 | 60 | 67 | 0.0 | 0.0 | 0.00 | 0.01 | 0.01 | 76 | 1018.6 |
| 20260502023503 | 60 | 67 | 0.0 | 0.0 | 0.00 | 0.01 | 0.01 | 75 | 1018.5 |
| 20260502023007 | 61 | 67 | 0.0 | 0.0 | 0.00 | 0.01 | 0.01 | 76 | 1018.5 |
| 20260502022504 | 61 | 67 | 0.0 | 0.0 | 0.00 | 0.01 | 0.01 | 77 | 1018.6 |
| 20260502022005 | 61 | 67 | 0.0 | 0.0 | 0.00 | 0.01 | 0.01 | 78 | 1018.5 |
| 20260502021508 | 61 | 67 | 0.0 | 0.0 | 0.00 | 0.01 | 0.01 | 78 | 1018.5 |
| 20260502021003 | 61 | 67 | 0.0 | 0.0 | 0.00 | 0.01 | 0.01 | 77 | 1018.4 |